Regional Weather Roundup
Issued by NWS

Home | Current Version | Previous Version | Text Only | Print | Product List | Glossary Off
Versions: 1 2 3 4 5 6 7 8 9 10 11 12 13 14 15 16 17 18 19 20 21 22 23 24 25 26 27 28 29 30 31 32 33 34 35 36 37 38 39 40 41 42 43 44 45 46 47 48 49 50

000
ASUS45 KTFX 280519
RWRMT
MONTANA HOURLY WEATHER ROUNDUP
NATIONAL WEATHER SERVICE GREAT FALLS MT
1019 PM MST TUE JAN 27 2015

NOTE: "FAIR" INDICATES FEW OR NO CLOUDS BELOW 12000 FEET WITH NO
SIGNIFICANT WEATHER AND/OR OBSTRUCTIONS TO VISIBILITY.

* THESE STATIONS ARE NOT UNDER NWS QUALITY CONTROL. THEY DO NOT
   REPORT WEATHER SUCH AS PRECIPITATION OR FOG.

MTZ001>007-043-280600-
WEST OF THE DIVIDE
CITY           SKY/WX    TMP DP  RH WIND       PRES   REMARKS
KALISPELL      FOG       18  18 100 SW5       29.98R VSB 1/2  WCI  11
MISSOULA       FOG       30  28  92 W3        30.06R
BUTTE          CLOUDY    32  28  85 CALM      30.01R
MULLAN PASS    MOCLDY    34  25  70 VRB7      30.04R WCI  28
* ANACONDA     MOCLDY    37  28  70 NW3        N/A
* ESSEX        N/A       29  26  89 SE1        N/A
* EUREKA APT   PTCLDY    37  28  70 SE3        N/A
* HAMILTON APT CLOUDY    36  30  79 W3        30.04R
* LIBBY APT    PTCLDY    27  27 100 CALM      30.01S
* LINCOLN      N/A       32  27  82 W2         N/A
* LOOKOUT PASS N/A       41  27  58 NE3G12     N/A
* POLSON       N/A       40  29  65 S2         N/A
* RONAN APT    CLOUDY    32  32 100 N/A        N/A
* SEELEY LAKE  N/A       27  24  88 N2         N/A
* THOMP F APT  PTCLDY    33  32  96 NE1        N/A
* YAAK HILL    N/A       32  30  92 SE1        N/A
$$

MTZ008-052>055-280600-
SOUTHWEST MONTANA
CITY           SKY/WX    TMP DP  RH WIND       PRES   REMARKS
BOZEMAN        CLOUDY    34  30  85 N3        29.98R
DILLON         CLOUDY    43  30  60 SW13      30.01R
* W YELLOWSTON CLOUDY    32  31  96 N/A        N/A
* THREE FORKS  CLOUDY    48  43  83 SW14G20    N/A
* TWIN BRIDGES MOCLDY    43  28  56 N/A        N/A
* BOULDER HILL N/A       42  23  47 SW6        N/A
* MONIDA PASS  N/A       31  31 100 SE10       N/A   WCI  22
* RAYNOLDS PAS N/A       33  17  52 S12        N/A   WCI  24
* WHITEHALL    N/A       47  29  50 W8G15      N/A
* WISE RIVER   N/A       31  26  82 NW3G8      N/A
$$

MTZ009>010-012-014-046-048-049-054-280600-
EAST SLOPES AND CENTRAL MONTANA
CITY           SKY/WX    TMP DP  RH WIND       PRES   REMARKS
CUT BANK       CLOUDY    46  25  44 W25       29.85R
GREAT FALLS    CLOUDY    48  28  46 W10       29.88R
HELENA         CLOUDY    37  30  76 SW5       29.97R WCI  33
MALMSTROM AFB  CLOUDY    50  27  41 W2        29.89R
* CONRAD       CLOUDY    52  28  40 S9         N/A
* DEARBORN     N/A       53  27  37 S11        N/A
* EAST GLACIER N/A       40  20  45 W2G7       N/A
* MONARCH      N/A       46  19  34 SW9        N/A
* PENDROY      N/A       44  22  42 W11        N/A
* ROGERS PASS  N/A       45  25  45 SE11G17    N/A
* SWEET GRASS  N/A       46  23  40 W16G24     N/A
* WHITE SULPH  N/A       44  29  56 S12G18     N/A
$$

MTZ011-013-016-021-035-040-045-047-050-051-280600-
NORTH CENTRAL MONTANA
CITY           SKY/WX    TMP DP  RH WIND       PRES   REMARKS
HAVRE          CLOUDY    43  32  65 SW14      29.80S
LEWISTOWN      MOCLDY    45  28  51 SW14      29.87R
* N BAR RANCH  FAIR      45  23  42 W7        29.86S
* CHINOOK      CLOUDY    37  34  89 E3        29.78F
* CHESTER      N/A       44  28  53 NW11G16    N/A
* DENTON       N/A       46  25  44 SW6        N/A
* GEYSER       N/A       53  20  27 SW19G24    N/A
* JUDITH GAP   N/A       47  24  40 SW9        N/A
* LOMA         N/A       48  32  54 SW12       N/A
$$

MTZ017>020-022>027-061-062-280600-
NORTHEAST MONTANA
CITY           SKY/WX    TMP DP  RH WIND       PRES   REMARKS
GLASGOW        CLOUDY    37  32  82 CALM      29.76S
GLENDIVE       PTCLDY    37  30  76 CALM      29.77F
JORDAN         MOCLDY    34  30  85 NW6       29.79S WCI  29
SIDNEY         CLOUDY    34  30  85 CALM      29.78F
WOLF POINT     MOCLDY    34  28  79 W3        29.77F
* BEAVER HILL  N/A       44  32  63 S6         N/A
* CIRCLE       N/A       39  32  76 N/A        N/A
* LINDSAY DVD  N/A       47  28  48 NW6        N/A
* NAVAJO       N/A       40  31  70 NW6        N/A   WCI  36
* PLENTYWOOD A CLOUDY    36  30  79 NE5       29.75F WCI  32
* POPLAR APT   CLOUDY    34  34 100 N/A       29.77R
* SACO         N/A       33  31  92 N/A        N/A
* SCOBEY APT   CLOUDY    32  27  82 N/A        N/A
$$

MTZ028>042-056>058-280600-
SOUTHCENTRAL AND SOUTHEAST MONTANA
CITY           SKY/WX    TMP DP  RH WIND       PRES   REMARKS
BAKER          PTCLDY    34  28  79 CALM      29.79F
BILLINGS       MOCLDY    46  28  50 SW12      29.86S
LIVINGSTON     CLOUDY    52  30  43 W28G44    29.92F
MILES CITY     CLEAR     36  30  79 W7        29.79S WCI  30
* BIG TIMBER A CLOUDY    52  30  43 W23G32    29.91S
* FORSYTH APT  PTCLDY    45  32  60 CALM      29.81R
* LAUREL APT   MOCLDY    43  27  53 N/A        N/A
* ROUNDUP APT  CLOUDY    48  28  46 S6         N/A
* ALZADA       N/A       38  30  73 W2         N/A
* HYSHAM       N/A       48  25  41 W6         N/A
* REED POINT   N/A       52  29  41 SW8        N/A
* ROSCOE HILL  N/A       52  17  25 SW10G24    N/A
$$

REGIONAL REPORTS...DAKOTAS
CITY           SKY/WX    TMP DP  RH WIND       PRES   REMARKS
WILLISTON      CLOUDY    32  30  92 CALM      29.77S
DICKINSON      CLOUDY    39  30  70 W5        29.76F WCI  35
BEACH          CLEAR     34  32  92 SE3       29.78F
CROSBY         CLEAR     30  30 100 CALM      29.77F
TIOGA          CLEAR     28  28 100 CALM      29.79S
WATFORD CITY   CLEAR     36  32  85 CALM      29.75F
BISMARCK       MOCLDY    32  30  92 NE6       29.79S WCI  26
GRAND FORKS    CLOUDY    32  30  92 S14       29.89F WCI  22
FARGO          CLOUDY    36  30  79 S20G26    29.91F WCI  25
BUFFALO SD     PTCLDY    46  30  54 W5        29.73F
RAPID CITY     MOCLDY    46  28  50 W10       29.80F
$$

REGIONAL REPORTS...WYOMING/IDAHO/WASHINGTON
CITY           SKY/WX    TMP DP  RH WIND       PRES   REMARKS
GILLETTE       PTCLDY    46  28  50 SW16      29.85F
SHERIDAN       MOCLDY    39  28  65 CALM      29.86F
CODY           CLOUDY    52  28  40 SW21G32   29.93F
YELLOWSTONE LA CLOUDY    32  28  85 CALM      30.14S
SALMON         CLOUDY   N/A N/A N/A CALM      30.13R
MULLAN PASS    MOCLDY    34  25  70 VRB7      30.04S WCI  28
SAND POINT     FOG      N/A N/A N/A CALM      30.07R VSB M1/4
SPOKANE        FOG       34  34 100 SW7       30.09R VSB M1/4 WCI  28
$$

REGIONAL REPORTS...ALBERTA
CITY           SKY/WX    TMP DP  RH WIND       PRES   REMARKS
CALGARY        FAIR      34  27  76 N7        29.82R WCI  28
LETHBRIDGE     FAIR      45  23  42 SW18      29.79R
MEDICINE HAT   CLOUDY    39  32  76 SW8       29.74S WCI  33
EDMONTON       LGT SNOW  32  30  92 N10       29.90R VSB 3    WCI  24
WATERTON GATE  N/A       36  19  50 SE1        N/A
CARDSTON       N/A       43  21  42 SW8        N/A
MILK RIVER     N/A       39  27  62 W15        N/A   WCI  31
$$

REGIONAL REPORTS...SASKATCHEWAN
CITY           SKY/WX    TMP DP  RH WIND       PRES   REMARKS
SWIFT CURRENT  CLOUDY    34  32  92 VRB2      29.70F
REGINA         MOCLDY    27  25  92 SE6       29.79S WCI  20
VAL MARIE      N/A       32  30  92 SW1        N/A
ASSINIBOIA     N/A       32  30  92 SE6        N/A   WCI  26
CORONACH       N/A       30  28  92 NW1        N/A

$$



USA.gov is the U.S. government's official web portal to all federal, state and local government web resources and services.